カタログに戻る

FENGYUN 1C DEB

運用中PO
NORAD 31384·DEBRIS·🇨🇳 China

打ち上げ May 10, 1999 から Taiyuan Satellite Launch Center

Loading…

次のパス (今後24時間)

TLE

最新Source: Space-Track

元期: Sep 14, 2026, 08:25 UTC

1 31384U 99025BSQ 26257.35088002  .00004427  00000-0  17570-2 0  9991
2 31384  98.4767 203.7155 0432115   1.5513 148.8958 13.88506242968461

AllMySatでFENGYUN 1C DEBをリアルタイム追跡

Download on the App Store